Regional Weather Roundup
Issued by NWS

Home | Current Version | Previous Version | Graphics & Text | Print | Product List | Glossary On
Versions: 1 2 3 4 5 6 7 8 9 10 11 12 13 14 15 16 17 18 19 20 21 22 23 24 25 26 27 28 29 30 31 32 33 34 35 36 37 38 39 40 41 42 43 44 45 46 47 48 49 50
761
ASUS43 KLOT 201503
RWRIL

ILLINOIS REGIONAL WEATHER ROUNDUP
NATIONAL WEATHER SERVICE CHICAGO/ROMEOVILLE IL
900 AM CST MON NOV 20 2017

NOTE: "FAIR" INDICATES FEW OR NO CLOUDS BELOW 12,000 FEET WITH NO
SIGNIFICANT WEATHER AND/OR OBSTRUCTIONS TO VISIBILITY.

* THESE STATIONS ARE NOT UNDER NWS QUALITY CONTROL. THEY ALSO MAY NOT
  REPORT WEATHER SUCH AS PRECIPITATION OR FOG.

ILZ001-002-007-009-015-016-024-201600-
NORTHWEST ILLINOIS

CITY           SKY/WX    TMP DP  RH WIND       PRES   REMARKS
MOLINE         SUNNY     42  28  57 SW13G21   29.87F
STERLING*      SUNNY     39  29  67 VRB6      29.89  WCI  35
SAVANNA*       SUNNY     39  31  71 S10       29.86F WCI  32
$$

ILZ003-004-008-010-011-017-018-201600-
NORTH CENTRAL ILLINOIS

CITY           SKY/WX    TMP DP  RH WIND       PRES   REMARKS
ROCKFORD       PTSUNNY   39  28  64 SW14      29.90F WCI  31
FREEPORT*      SUNNY     37  28  70 SW21      29.87F WCI  27
ROCHELLE*      SUNNY     37  30  77 S13G18    29.90F WCI  28
DE KALB*       SUNNY     36  29  75 SW18G24   29.89F WCI  26
PERU*          SUNNY     38  27  64 SW15      29.94F WCI  29
$$

ILZ005-006-012>014-019>023-201600-
NORTHEAST ILLINOIS

CITY           SKY/WX    TMP DP  RH WIND       PRES   REMARKS
CHICAGO-OHARE  MOSUNNY   39  26  59 SW17G24   29.91F WCI  30
CHICAGO-MIDWAY MOSUNNY   40  27  59 SW15G25   29.93F
AURORA         SUNNY     37  28  70 S16G23    29.93F WCI  28
LANSING*       SUNNY     38  29  70 SW16G24   29.97S WCI  29
JOLIET*        SUNNY     40  29  64 SW13G18   29.95F
WAUKEGAN       CLOUDY    40  27  59 SW21G29   29.86F
DUPAGE AIRPORT SUNNY     37  28  70 S14       29.91F WCI  28
KANKAKEE*      SUNNY     38  27  64 SW20G26   30.00F WCI  27
WHEELING       SUNNY     40  27  59 SW15      29.92F
MORRIS*        SUNNY     38  28  67 SW17      29.94F WCI  29
ROMEOVILLE*    SUNNY     39  28  65 SW16      29.95F WCI  30
NORTHERLY ISL    N/A     39  25  57 SW10        N/A  WCI  32
$$

LMZ740>746-201600-
SOUTHERN LAKE MICHIGAN

STATION/POSITION SKY/WX   TEMP    WIND        PRES    VSBY  WAVE
                          AIR SEA DIR/SP/G                  HT/PER
                          (F)     (DEG/KT/KT) (MB)    (MI)  (FT/S)
SOUTHERN BUOY              42 49  250/ 21/ 25 1012.8          7/ 6
HARRISON CRIB              39     210/ 27/ 31   N/A
BURNHAM HARBOR             39     190/  9/ 10   N/A
CALUMET HARBOR             38     200/ 11/ 15 1013.9R
BURNS HARBOR               38     190/ 19     1015.6R
MICHIGAN CITY              38     170/ 14/ 19   N/A
$$

ILZ025>027-034>036-040-047-049-050-058-095>099-201600-
WEST-CENTRAL ILLINOIS

CITY           SKY/WX    TMP DP  RH WIND       PRES   REMARKS
QUINCY         SUNNY     44  29  55 S18       29.97F
GALESBURG*     SUNNY     40  31  71 S15       29.93F
MACOMB*        SUNNY     44  30  58 SW21G28   29.96F
JACKSONVILLE*  SUNNY     40  27  60 S16       30.03F
PITTSFIELD*    SUNNY     43  29  57 S15       30.03F
$$

ILZ028>032-037-038-041>044-048-051>054-059>061-201600-
CENTRAL ILLINOIS

CITY           SKY/WX    TMP DP  RH WIND       PRES   REMARKS
PONTIAC        SUNNY     39  30  68 S21G26    29.98F WCI  29
BLOOMINGTON    SUNNY     39  27  62 S20       30.00F WCI  29
DECATUR        CLOUDY    39  25  57 SW17      30.07F WCI  30
PEORIA         CLOUDY    39  28  64 S16       29.98F WCI  30
LACON*         SUNNY     41  27  56 S12G17    29.95F
LINCOLN*       SUNNY     39  29  67 S14G22    30.03F WCI  31
SPRINGFIELD    SUNNY     42  27  55 S15G25    30.05F
TAYLORVILLE    CLOUDY    37  27  66 S14       30.08F WCI  28
$$

ILZ033-039-045-046-055>057-062-063-201600-
EAST-CENTRAL ILLINOIS

CITY           SKY/WX    TMP DP  RH WIND       PRES   REMARKS
CHAMPAIGN      SUNNY     37  27  67 S20       30.07F WCI  27
DANVILLE*      CLOUDY    36  25  64 S17G24    30.06F WCI  26
RANTOUL*       SUNNY     39  29  66 S14G20    30.06F WCI  31
MATTOON        CLOUDY    36  26  67 S13       30.11S WCI  27
PARIS*         CLOUDY    36  26  67 S15       30.13F WCI  27
$$

ILZ079-100>102-201600-
SOUTHWEST ILLINOIS

CITY           SKY/WX    TMP DP  RH WIND       PRES   REMARKS
ALTON          PTSUNNY   39  27  60 SW15G21   30.10S WCI  31
BELLEVILLE     SUNNY     43  24  46 S10       30.11F
CAHOKIA*       SUNNY     44  23  43 SW10G17   30.11F
SPARTA*        CLOUDY    40  23  50 S13G20    30.16F
$$

ILZ064>066-069>071-074>076-080>082-084>086-088>090-092>094-201600-
SOUTH-CENTRAL ILLINOIS

CITY           SKY/WX    TMP DP  RH WIND       PRES   REMARKS
CARBONDALE     CLOUDY    41  30  65 S12       30.20S
CAIRO*         CLOUDY    38  30  72 S8        30.25S WCI  32
EFFINGHAM*     CLOUDY    39  26  60 SE8       30.16S WCI  33
MARION         MOSUNNY   39  30  70 S8        30.20F WCI  34
MT. VERNON     SUNNY     40  29  64 S14       30.17F
CENTRALIA*     SUNNY     41  28  60 S14       30.13F
SALEM*         CLOUDY    42  26  51 S12       30.13F
METROPOLIS*    MOSUNNY   37  27  67 S5        30.25S WCI  33
$$

ILZ067-068-072-073-078-083-087-091-201600-
SOUTHEAST ILLINOIS

CITY           SKY/WX    TMP DP  RH WIND       PRES   REMARKS
LAWRENCEVILLE  CLOUDY    37  27  67 S10       30.21S WCI  30
FLORA*         CLOUDY    39  29  67 S10       30.19R WCI  32
FAIRFIELD*     SUNNY     37  28  68 S10       30.18F WCI  30
HARRISBURG*    CLOUDY    38  28  67 SW6       30.22F WCI  34
ROBINSON*      SUNNY     36  25  65 S9        30.19S WCI  29
CARMI*         SUNNY     37  29  75 S10       30.21F WCI  29
$$

ABBREVIATIONS USED IN REMARKS
   TC - TEMPERATURE IN CELSIUS
  WCI - WIND CHILL INDEX
   HX - HEAT INDEX
  VSB - VISIBILITY
$$





USA.gov is the U.S. government's official web portal to all federal, state and local government web resources and services.